Chicopee, MA

2:13 PM EDT on May 26, 2017 (GMT -0400)
Westover Air Reserve Base / Metropolitan Airport

Weather History for KCEF - August, 2013

Change the Weather History Date:

Saturday, August 24, 2013

  Actual Average Record
Temperature  
Mean Temperature 64 °F -  
Max Temperature 78 °F 78 °F 91 °F (1998)
Min Temperature 50 °F 57 °F 44 °F (2003)
Degree Days  
Heating Degree Days 2    
Growing Degree Days 14 (Base 50)    
Moisture  
Dew Point 53 °F    
Average Humidity 77    
Maximum Humidity 100    
Minimum Humidity 42    
Precipitation  
Precipitation 0.00 in - - ()
Sea Level Pressure  
Sea Level Pressure 30.31 in    
Wind  
Wind Speed 4 mph (NNE)    
Max Wind Speed 9 mph    
Max Gust Speed -    
Visibility 8 miles    
Events      
Averages and records for this station are not official NWS values.
T = Trace of Precipitation, MM = Missing Value Source: NWS Daily Summary

Daily Weather History Graph

Daily Weather History Graph

Search for Another Location

Airport or City:

Trip Planner

Search our weather history database for the weather conditions in past years. The results will help you decide how hot, cold, wet, or windy it might be!

Date:

Astronomy

Aug. 24, 2013 Rise Set
Actual Time 6:07 AM EDT 7:36 PM EDT
Civil Twilight 5:37 AM EDT 8:06 PM EDT
Nautical Twilight 5:02 AM EDT 8:41 PM EDT
Astronomical Twilight 4:24 AM EDT 9:18 PM EDT
Moon 9:23 PM EDT (8/24) 10:09 AM EDT (8/24)
Length of Visible Light 14h 28m
Length of Day
13h 29m
Waning Gibbous, 84% of the Moon is Illuminated
Aug 24
Waning Gibbous
Aug 28
Last Quarter
Sep 5
New
Sep 12
First Quarter
Sep 19
Full

Hourly Weather History & Observations

Time (EDT) Temp. Dew Point Humidity Pressure Visibility Wind Dir Wind Speed Gust Speed Precip Events Conditions
12:58 AM 57.0 °F 51.3 °F 81% 30.18 in 10.0 mi ENE 4.6 mph - N/A   Clear
1:58 AM 55.4 °F 50.9 °F 85% 30.19 in 10.0 mi NE 2.3 mph - N/A   Clear
2:58 AM 57.0 °F 51.3 °F 81% 30.20 in 10.0 mi North 9.2 mph - N/A   Clear
3:58 AM 53.4 °F 50.0 °F 88% 30.23 in 10.0 mi ENE 3.5 mph - N/A   Clear
4:58 AM 51.8 °F 50.7 °F 96% 30.25 in 10.0 mi NE 3.5 mph - N/A   Clear
5:58 AM 50.5 °F 50.0 °F 98% 30.27 in 10.0 mi NNE 4.6 mph - N/A   Clear
6:58 AM 51.1 °F 50.5 °F 98% 30.29 in 10.0 mi ENE 4.6 mph - N/A   Clear
7:58 AM 59.9 °F 52.7 °F 77% 30.31 in 10.0 mi North 8.1 mph - N/A   Clear
8:58 AM 63.5 °F 51.8 °F 66% 30.32 in 10.0 mi North 8.1 mph - N/A   Clear
9:58 AM 67.1 °F 52.5 °F 59% 30.33 in 10.0 mi NNE 8.1 mph - N/A   Clear
10:58 AM 69.6 °F 53.4 °F 56% 30.33 in 10.0 mi Variable 4.6 mph - N/A   Clear
11:58 AM 72.1 °F 51.3 °F 48% 30.33 in 10.0 mi Variable 3.5 mph - N/A   Clear
12:58 PM 73.2 °F 52.0 °F 47% 30.31 in 10.0 mi Variable 4.6 mph - N/A   Clear
1:09 PM 73.4 °F 53.6 °F 50% 30.30 in 10.0 mi Variable 1.2 mph - N/A   Clear
1:58 PM 75.9 °F 52.7 °F 44% 30.32 in 10.0 mi NNW 4.6 mph - N/A   Clear
2:58 PM 75.9 °F 53.6 °F 46% 30.31 in 10.0 mi WNW 6.9 mph - 0.00 in   Clear
3:58 PM 77.4 °F 53.8 °F 44% 30.30 in 10.0 mi WNW 8.1 mph - N/A   Scattered Clouds
4:58 PM 77.5 °F 52.5 °F 42% 30.30 in 10.0 mi WSW 3.5 mph - N/A   Scattered Clouds
5:58 PM 76.6 °F 53.2 °F 44% 30.30 in 10.0 mi NW 4.6 mph - N/A   Partly Cloudy
6:58 PM 74.3 °F 55.2 °F 51% 30.30 in 10.0 mi NNW 2.3 mph - N/A   Clear
7:58 PM 65.3 °F 56.8 °F 74% 30.32 in 10.0 mi East 2.3 mph - N/A   Clear
8:58 PM 60.8 °F 59.7 °F 96% 30.33 in 10.0 mi ENE 2.3 mph - N/A   Clear
9:58 PM 55.0 °F 54.5 °F 98% 30.35 in 10.0 mi NNE 2.3 mph - N/A   Clear
10:58 PM 56.1 °F 55.8 °F 99% 30.36 in 10.0 mi NNE 2.3 mph - N/A   Clear
11:30 PM 51.8 °F 51.8 °F 100% 30.34 in 2.5 mi NE 3.5 mph - N/A   Clear
11:31 PM 51.8 °F 51.8 °F 100% 30.34 in 1.8 mi NE 3.5 mph - N/A   Clear
11:32 PM 51.8 °F 51.8 °F 100% 30.34 in 1.5 mi NE 3.5 mph - N/A   Clear
11:34 PM 53.6 °F 53.6 °F 100% 30.34 in 1.8 mi NE 3.5 mph - N/A   Clear
11:39 PM 53.6 °F 53.6 °F 100% 30.34 in 2.0 mi NE 2.3 mph - N/A   Clear
11:40 PM 53.6 °F 53.6 °F 100% 30.34 in 2.5 mi NE 1.2 mph - N/A   Clear
11:41 PM 53.6 °F 53.6 °F 100% 30.34 in 5.0 mi NE 1.2 mph - N/A   Clear
11:58 PM 53.8 °F 53.6 °F 99% 30.36 in 10.0 mi Calm Calm - N/A   Clear